Regional Weather Roundup
Issued by NWS Austin/San Antonio, TX

Home | Current Version | Previous Version | Text Only | Print | Product List | Glossary Off
Versions: 1 2 3 4 5 6 7 8 9 10 11 12 13 14 15 16 17 18 19 20 21 22 23 24 25 26 27 28 29 30 31 32 33 34 35 36 37 38 39 40 41 42 43 44 45 46 47 48 49 50

000
ASUS44 KEWX 270212
RWREWX
SOUTH TEXAS REGIONAL WEATHER ROUNDUP
NATIONAL WEATHER SERVICE AUSTIN/SAN ANTONIO TX
900 PM CDT FRI MAY 26 2017

NOTE: "FAIR" INDICATED FEW OR NO CLOUDS BELOW 12,000 FEET WITH NO
SIGNIFICANT WEATHER AND/OR OBSTRUCTIONS TO VISIBILITY.

* - THESE STATIONS ARE NOT NWS OR FAA STATIONS...AND ARE NOT SUBJECT
    TO NWS AND FAA QUALITY CONTROL.

TXZ171-172-183>190-270300-
TEXAS HILL COUNTRY AND EDWARDS PLATEAU

CITY           SKY/WX    TMP DP  RH WIND       PRES   REMARKS
JUNCTION       PTCLDY    88  70  55 S10       29.84R HX  93
*LLANO         MOCLDY    84  72  65 SE5       29.85S
BURNET         MOCLDY    82  71  69 S6        29.86S
*HORSESHOE BAY NOT AVBL
*KERRVILLE     MOCLDY    80  73  79 SE6       29.88R
*FREDERICKSBRG MOCLDY    80  69  68 S5        29.87S
*ROCKSPRINGS   PTCLDY    81  72  74 S12       29.92R
*BOERNE STAGE  CLOUDY    77  70  78 CALM      29.88R
*CASTROVILLE   CLOUDY    85  71  64 SE8       29.84R HX  90
HONDO          MOCLDY    83  74  74 E6        29.83R
*UVALDE        MOCLDY    80  75  83 CALM      29.82R
DEL RIO        MOCLDY    85  73  67 SE8       29.80R HX  91
LAUGHLIN AFB   NOT AVBL
CARRIZO SPRGS  CLEAR     90  72  55 CALM      29.77R HX  96
*EAGLE PASS    NOT AVBL
$$

TXZ173-191>194-202-209-217>225-228-270300-
CENTRAL AND SOUTH CENTRAL TEXAS

CITY           SKY/WX    TMP DP  RH WIND       PRES   REMARKS
GEORGETOWN     CLEAR     86  70  58 SE5       29.83R HX  90
AUSTIN/BERGSTM CLOUDY    85  75  72 S10       29.83R HX  93
AUSTIN/MABRY   CLOUDY    85  73  67 VRB6      29.84R HX  91
*AUSTIN/EXEC   MOCLDY    82  75  78 S10       29.85R
*LAGO VISTA    CLOUDY    82  72  71 S5        29.86S
SAN MARCOS     MOCLDY    82  73  74 SE8       29.85R
NEW BRAUNFELS  CLOUDY    83  75  77 S10       29.83R HX  90
RANDOLPH AFB   NOT AVBL
PT SAN ANTONIO NOT AVBL
SAN ANTONIO    CLOUDY    84  74  71 SE17      29.85R HX  91
STINSON FIELD  MOCLDY    85  75  72 SE10      29.81R HX  93
*LA GRANGE     PTCLDY    82  77  84 S9        29.84R
*GIDDINGS      PTCLDY    81  73  76 S8        29.86R
*GONZALES      PTCLDY    82  78  89 SE10G16   29.84R HX  90
$$

TXZ163>164-176>182-195>201-210>213-226-227-235-270300-
SOUTHEAST TEXAS

CITY           SKY/WX    TMP DP  RH WIND       PRES   REMARKS
COLLEGE STN    PTCLDY    82  74  76 S12       29.85R
*BRYAN         PTCLDY    81  73  77 S9G16     29.86R
*CALDWELL      NOT AVBL
*CROCKETT      PTCLDY    81  75  83 S8        29.88S
*BRENHAM       PTCLDY    82  75  78 SE8       29.87R
HUNTSVILLE     PTCLDY    83  72  69 S8        29.86S
CONROE         MOCLDY    80  74  81 SE12      29.88R
HOUSTON BUSH   CLOUDY    82  74  76 S15       29.89R
HOUSTON HOBBY  CLOUDY    80  75  84 S10       29.90R
*HOUSTON SW AP CLOUDY    79  74  86 SE7       29.90R
PEARLAND       CLOUDY    82  75  79 SE10      29.91R
HOUSTON HOOKS  CLOUDY    82  75  79 SE9       29.87R
ELLINGTON FLD  CLOUDY    81  73  78 SE10      29.92R
SUGAR LAND     CLOUDY    82  75  79 SE14      29.88R
*HOUSTON EXEC  CLOUDY    81  75  83 S13       29.89R HAZE
*CLEVELAND MUN MOCLDY    79  74  85 S7        29.90S
*WHARTON       CLOUDY    80  73  81 SE14      29.88S
*COLUMBUS      CLOUDY    81  74  81 S12       29.87S
*EAGLE LAKE    MOCLDY    81  78  90 S12       29.87R
$$

TXZ214>216-236>238-270300-
THE UPPER TEXAS COAST

CITY           SKY/WX    TMP DP  RH WIND       PRES   REMARKS
*ORANGE        CLOUDY    79  76  89 S8        29.94S
PORT ARTHUR    MOCLDY    78  74  87 S12       29.91S
GALVESTON      CLEAR     81  77  88 S16       29.91R
ANGLETON       CLOUDY    82  76  81 S14       29.89S
*BAY CITY      CLOUDY    80  76  89 SE9       29.89R
PALACIOS       CLOUDY    78  76  93 SE18      29.87S
$$

TXZ229>234-239>247-270300-
TEXAS COASTAL BEND AND RIO GRANDE PLAINS

CITY           SKY/WX    TMP DP  RH WIND       PRES   REMARKS
VICTORIA       CLOUDY    81  76  84 SE14      29.86R
*BEEVILLE      CLOUDY    82  82 100 SE15      29.84R HX  95
ROCKPORT       MOCLDY    81  77  88 SE18      29.85R
*PORT ARANSAS  CLOUDY    80  77  91 SE13      29.86R FOG
*PORT LAVACA   CLOUDY    80  78  94 SE9       29.87S
*INGLESIDE     CLOUDY    82  78  89 SE17G24   29.84R HX  90
CORPUS CHRISTI MOCLDY    81  78  91 SE17G23   29.84R
CORPUS NAS     CLOUDY    82  79  90 SE20G26   29.84R HX  92
*ROBSTOWN      CLOUDY    82  77  84 SE16G22   29.83R HX  91
ALICE          MOCLDY    82  77  84 SE14G23   29.81R HX  90
KINGSVILLE NAS MOCLDY    82  80  94 SE16G23   29.82R HX  94
COTULLA        CLEAR     93  75  55 SE10      29.78R HX 104
*FAITH RANCH   CLEAR     88  75  66 CALM      29.79R HX  97
LAREDO         CLEAR     93  75  55 CALM      29.78R HX 104
$$

TXZ248>255-270300-
DEEP SOUTH TEXAS

CITY           SKY/WX    TMP DP  RH WIND       PRES   REMARKS
BROWNSVILLE    CLOUDY    83  78  85 SE15      29.83R HX  93
PORT ISABEL    MOCLDY    82  79  90 SE18      29.81R HX  92
*SOUTH PADRE   NOT AVBL
HARLINGEN      MOCLDY    82  79  90 SE15      29.80R HX  92
*HEBBRONVILLE  CLOUDY    90  72  56 SE13      29.81R HX  97
MCALLEN        CLOUDY    87  76  69 SE14      29.79R HX  97
*WESLACO       MOCLDY    83  76  79 S15G23    29.79R HX  92
FALFURRIAS     CLEAR     85  78  80 E12       29.80R HX  96
EDINBURG       PTCLDY    87  75  68 SE15      29.80R HX  97
*ZAPATA        PTCLDY    93  74  54 SE8       29.76R HX 103
$$

TXZ213>215-236>238-242>244-246-247-251-254-255-270300-
CMAN STATIONS

STATION/POSITION TIME  TEMP    WIND        PRES    WAVE
                       AIR SEA DIR/SP/G            HT/PER
                 (UTC) (F)     (DEG/KT/KT) (MB)    (FT/S)
SABINE PASS      0148   79 82  150/ 12/ 15 1014.6
SEA RIM ST PARK  0200   78     160/ 11/ 13 1013.7
NORTH JETTY/GLS  0148          150/ 16/ 19 1012.4
EAGLE POINT      0148   79 79  180/ 15/ 17 1012.7
MORGANS POINT    0148   80 78  150/  5/  9 1012.6
MISSION/ARANSAS  0100   81                 1011.0
PORT O`CONNOR    0148   79     130/ 18/ 20 1011.0
PORT ARANSAS     0200   80 82  120/ 16/ 18 1011.0
MALAQUITE BEACH  0148   80 82  110/ 19/ 21 1011.0
BAFFIN BAY       0148   81 84              1010.1
PORT ISABEL      0148   81 82  160/ 10/ 13 1010.1
$$




USA.gov is the U.S. government's official web portal to all federal, state and local government web resources and services.